This demonstration page uses our WeatherBlox Daily Observations layout. Learn more.

Left ArrowRight Arrow

Hourly Observations for October 13, 2020

Temp ( °F °C ) Dew Point ( °F °C ) Humidity (%) Winds ( mph kmh ) Pressure ( in mb ) Visibility ( mi km ) Precip ( " mm )
12:15 am 00:15 Clear 48 9 48 9 100 100 NW 3 6 30.01 1016 10 16 N/A
12:35 am 00:35 Clear 48 9 48 9 100 100 WNW 5 7 30.02 1017 10 16 N/A
12:55 am 00:55 Clear 45 7 45 7 100 100 W 3 6 30.03 1017 10 16 N/A
1:15 am 01:15 Clear 45 7 45 7 100 100 W 5 7 30.04 1017 10 16 N/A
1:35 am 01:35 Clear 43 6 43 6 100 100 WNW 5 7 30.05 1018 10 16 N/A
1:55 am 01:55 Clear 43 6 43 6 100 100 N N/A 30.05 1018 10 16 N/A
2:15 am 02:15 Clear 43 6 43 6 100 100 N N/A 30.06 1018 10 16 N/A
2:35 am 02:35 Clear 43 6 43 6 100 100 N N/A 30.06 1018 4 6 N/A
2:55 am 02:55 Clear 43 6 43 6 100 100 WSW 3 6 30.07 1018 3 5 N/A
3:15 am 03:15 Mostly Cloudy 41 5 41 5 100 100 N N/A 30.09 1019 1 1 N/A
3:35 am 03:35 Mostly Cloudy 41 5 41 5 100 100 N N/A 30.10 1019 1 1 N/A
3:55 am 03:55 Mostly Cloudy 41 5 41 5 100 100 N N/A 30.10 1019 1 1 N/A
4:15 am 04:15 Mostly Cloudy 39 4 39 4 100 100 N N/A 30.09 1019 1 1 N/A
4:35 am 04:35 Cloudy 37 3 37 3 100 100 N N/A 30.09 1019 0 0 N/A
4:55 am 04:55 Mostly Cloudy 36 2 36 2 100 100 N N/A 30.11 1020 N/A N/A
5:15 am 05:15 Mostly Cloudy 37 3 37 3 100 100 N N/A 30.11 1020 1 1 N/A
5:35 am 05:35 Mostly Cloudy 39 4 39 4 100 100 N N/A 30.12 1020 1 1 N/A
5:55 am 05:55 Mostly Cloudy 39 4 39 4 100 100 N N/A 30.12 1020 1 1 N/A
6:15 am 06:15 Mostly Cloudy 36 2 36 2 100 100 N N/A 30.14 1021 1 1 N/A
6:35 am 06:35 Mostly Cloudy 37 3 37 3 100 100 N N/A 30.14 1021 1 1 N/A
6:55 am 06:55 Mostly Cloudy 36 2 36 2 100 100 N N/A 30.16 1021 1 1 N/A
7:15 am 07:15 Mostly Cloudy 36 2 36 2 100 100 SSE 3 6 30.16 1021 1 1 N/A
7:35 am 07:35 Mostly Cloudy 36 2 36 2 100 100 N N/A 30.17 1022 1 1 N/A
7:55 am 07:55 Cloudy 36 2 36 2 100 100 N N/A 30.16 1021 0 0 N/A
8:15 am 08:15 Cloudy 36 2 36 2 100 100 N N/A 30.17 1022 0 0 N/A
8:35 am 08:35 Mostly Cloudy 36 2 36 2 100 100 N N/A 30.17 1022 1 1 N/A
8:55 am 08:55 Cloudy 37 3 37 3 100 100 N N/A 30.17 1022 0 0 N/A
9:15 am 09:15 Mostly Cloudy 41 5 41 5 100 100 N N/A 30.19 1022 1 1 N/A
9:35 am 09:35 Sunny 45 7 45 7 100 100 SSE 3 6 30.18 1022 10 16 N/A
9:55 am 09:55 Sunny 48 9 48 9 100 100 S 5 7 30.18 1022 10 16 N/A
10:15 am 10:15 Sunny 50 10 50 10 100 100 SSW 3 6 30.18 1022 10 16 N/A
10:35 am 10:35 Sunny 52 11 52 11 100 100 N N/A 30.19 1022 10 16 N/A
10:55 am 10:55 Sunny 55 13 55 13 100 100 SSW 3 6 30.19 1022 10 16 N/A
11:15 am 11:15 Sunny 57 14 54 12 88 88 S 3 6 30.19 1022 10 16 N/A
11:35 am 11:35 Sunny 59 15 50 10 72 72 S 6 9 30.18 1022 10 16 N/A
11:55 am 11:55 Sunny 61 16 48 9 63 63 S 7 11 30.18 1022 10 16 N/A
12:15 pm 12:15 Sunny 61 16 46 8 59 59 S 9 15 30.17 1022 10 16 N/A
12:35 pm 12:35 Sunny 63 17 45 7 52 52 S 9 15 30.16 1021 10 16 N/A
12:55 pm 12:55 Sunny 63 17 43 6 49 49 S 8 13 30.16 1021 10 16 N/A
1:15 pm 13:15 Sunny 64 18 43 6 46 46 SSE 12 19 30.14 1021 10 16 N/A
1:35 pm 13:35 Sunny 64 18 43 6 46 46 SSE 10 17 30.13 1020 10 16 N/A
1:55 pm 13:55 Sunny 64 18 43 6 46 46 S 13 20 30.11 1020 10 16 N/A
2:15 pm 14:15 Sunny 66 19 43 6 43 43 S 12 19 30.11 1020 10 16 N/A
2:35 pm 14:35 Sunny 66 19 43 6 43 43 S 10 17 30.10 1019 10 16 N/A
2:55 pm 14:55 Sunny 66 19 41 5 40 40 S 10 17 30.09 1019 10 16 N/A
3:15 pm 15:15 Sunny 68 20 43 6 40 40 SSW 13 20 30.08 1019 10 16 N/A
3:35 pm 15:35 Sunny 68 20 45 7 43 43 S 10 17 30.07 1018 10 16 N/A
3:55 pm 15:55 Sunny 68 20 43 6 40 40 SW 10 17 30.07 1018 10 16 N/A
4:15 pm 16:15 Sunny 68 20 41 5 38 38 SW 12 19 30.07 1018 10 16 N/A
4:35 pm 16:35 Sunny 68 20 41 5 38 38 SW 12 19 30.06 1018 10 16 N/A
4:55 pm 16:55 Sunny 68 20 41 5 38 38 SSW 10 17 30.05 1018 10 16 N/A
5:15 pm 17:15 Sunny 68 20 43 6 40 40 SSW 13 20 30.05 1018 10 16 N/A
5:35 pm 17:35 Sunny 68 20 43 6 40 40 SW 16 26 30.04 1017 10 16 N/A
5:55 pm 17:55 Sunny 68 20 45 7 43 43 SW 12 19 30.04 1017 10 16 N/A
6:15 pm 18:15 Sunny 66 19 45 7 46 46 SSW 10 17 30.03 1017 10 16 N/A
6:35 pm 18:35 Sunny 66 19 45 7 46 46 SSW 10 17 30.03 1017 10 16 N/A
6:55 pm 18:55 Sunny 64 18 45 7 49 49 SW 9 15 30.03 1017 10 16 N/A
7:15 pm 19:15 Clear 63 17 43 6 49 49 SW 8 13 30.04 1017 10 16 N/A
7:35 pm 19:35 Clear 61 16 43 6 52 52 SW 9 15 30.05 1018 10 16 N/A
7:55 pm 19:55 Clear 61 16 43 6 52 52 SW 6 9 30.05 1018 10 16 N/A
8:15 pm 20:15 Clear 57 14 43 6 59 59 N N/A 30.05 1018 10 16 N/A
8:35 pm 20:35 Clear 59 15 43 6 55 55 S 6 9 30.04 1017 10 16 N/A
8:55 pm 20:55 Clear 57 14 43 6 59 59 S 6 9 30.05 1018 10 16 N/A
9:15 pm 21:15 Clear 57 14 43 6 59 59 S 8 13 30.06 1018 10 16 N/A
9:35 pm 21:35 Clear 55 13 43 6 63 63 S 6 9 30.05 1018 10 16 N/A
9:55 pm 21:55 Clear 55 13 43 6 63 63 S 7 11 30.04 1017 10 16 N/A
10:15 pm 22:15 Clear 55 13 43 6 63 63 S 8 13 30.04 1017 10 16 N/A
10:35 pm 22:35 Clear 55 13 45 7 67 67 S 8 13 30.04 1017 10 16 N/A
10:55 pm 22:55 Clear 55 13 45 7 67 67 S 9 15 30.04 1017 10 16 N/A
11:15 pm 23:15 Clear 55 13 45 7 67 67 S 8 13 30.04 1017 10 16 N/A
11:35 pm 23:35 Clear 54 12 45 7 72 72 S 8 13 30.04 1017 10 16 N/A
11:55 pm 23:55 Clear 54 12 45 7 72 72 SSW 8 13 30.05 1018 10 16 N/A

Powered by AerisWeather